DW8622 Weather Reports


Display with metric or nautical units.
time (UTC)temp
F
wind
direction
speed
MPH
gust
MPH
rain 1hr
in
rain 24hr
in
rain mn
in
humidity
%
barometer
mb
20260901212006 60 0 0.0 0.0 0.00 0.02 0.02 85 1020.0
20260901211506 60 0 0.0 0.0 0.00 0.02 0.02 85 1020.1
20260901211006 60 0 0.0 0.0 0.00 0.02 0.02 85 1020.2
20260901210505 60 0 0.0 0.0 0.00 0.02 0.02 85 1020.3
20260901210006 60 0 0.0 0.0 0.00 0.02 0.02 84 1020.3
20260901205005 60 0 0.0 0.0 0.00 0.02 0.02 84 1020.4
20260901204506 60 0 0.0 0.0 0.00 0.02 0.02 84 1020.4
20260901204006 60 0 0.0 0.0 0.00 0.02 0.02 84 1020.3
20260901203505 60 0 0.0 0.0 0.00 0.02 0.02 84 1020.3
20260901203006 60 0 0.0 0.0 0.00 0.02 0.02 84 1020.3
20260901202005 60 0 0.0 0.0 0.00 0.02 0.02 83 1020.3
20260901201006 60 0 0.0 0.0 0.00 0.02 0.02 83 1020.2
20260901200507 60 0 0.0 0.0 0.00 0.02 0.02 82 1020.2
20260901200005 60 0 0.0 0.0 0.00 0.02 0.02 82 1020.2
20260901195506 60 0 0.0 0.0 0.00 0.02 0.02 81 1020.2
20260901195006 60 0 0.0 0.0 0.00 0.02 0.02 81 1020.2
20260901194505 60 0 0.0 0.0 0.00 0.02 0.02 80 1020.3
20260901193506 60 0 0.0 0.0 0.00 0.02 0.02 80 1020.0
20260901193006 61 0 0.0 0.0 0.00 0.02 0.02 79 1020.0
20260901192007 61 0 0.0 0.0 0.00 0.02 0.02 78 1019.9
20260901191506 62 0 0.0 0.0 0.00 0.02 0.02 76 1019.9
20260901191006 62 0 0.0 0.0 0.00 0.02 0.02 76 1019.9
20260901190505 62 0 0.0 0.0 0.00 0.02 0.02 76 1020.0
20260901190005 62 0 0.0 0.0 0.00 0.02 0.02 76 1019.9
20260901185505 62 0 0.0 0.0 0.00 0.02 0.02 76 1019.9
20260901185005 62 0 0.0 0.0 0.00 0.02 0.02 76 1019.9
20260901184506 62 0 0.0 0.0 0.00 0.02 0.02 75 1019.9
20260901184006 62 0 0.0 0.0 0.00 0.02 0.02 75 1020.0
20260901183506 63 0 0.0 0.0 0.00 0.02 0.02 75 1019.9
20260901183006 63 0 0.0 0.0 0.00 0.02 0.02 75 1019.8
20260901182006 64 0 0.0 0.0 0.00 0.02 0.02 75 1019.7
20260901181505 64 0 0.0 0.0 0.00 0.02 0.02 74 1019.8
20260901181005 64 0 0.0 0.0 0.00 0.02 0.02 73 1019.8
20260901180506 65 0 0.0 0.0 0.00 0.02 0.02 72 1019.8
20260901180005 65 0 0.0 0.0 0.00 0.02 0.02 71 1019.7
20260901175505 66 0 0.0 0.0 0.00 0.02 0.02 69 1019.8
20260901175006 66 0 0.0 0.0 0.00 0.02 0.02 70 1019.8
20260901174505 66 0 0.0 0.0 0.00 0.02 0.02 70 1019.9
20260901174008 66 279 0.0 5.0 0.00 0.02 0.02 69 1019.9
20260901173506 66 284 1.0 5.0 0.00 0.02 0.02 69 1019.9
20260901173006 67 283 2.0 8.0 0.00 0.02 0.02 68 1020.0
20260901172505 67 281 4.0 8.0 0.00 0.02 0.02 65 1020.0
20260901172006 68 283 3.0 8.0 0.00 0.02 0.02 65 1020.0
20260901171505 68 277 3.0 10.0 0.00 0.02 0.02 64 1020.1
20260901171005 68 271 4.0 10.0 0.00 0.02 0.02 62 1020.0
20260901170507 68 269 4.0 10.0 0.00 0.02 0.02 62 1020.1
20260901170005 68 268 4.0 10.0 0.00 0.02 0.02 62 1020.1
20260901165006 69 264 3.0 7.0 0.00 0.02 0.02 62 1020.1
20260901164506 69 275 4.0 10.0 0.00 0.02 0.02 62 1020.0
20260901164005 69 280 4.0 10.0 0.00 0.02 0.02 62 1019.9
20260901163006 70 266 6.0 10.0 0.00 0.02 0.02 59 1019.9
20260901162506 70 257 6.0 12.0 0.00 0.02 0.02 59 1019.9
20260901162006 70 251 4.0 12.0 0.00 0.02 0.02 59 1019.8
20260901161005 70 270 4.0 10.0 0.00 0.02 0.02 60 1019.8
20260901160505 70 275 5.0 10.0 0.00 0.02 0.02 59 1019.9
20260901155505 70 266 6.0 11.0 0.00 0.02 0.02 57 1019.8
20260901154005 71 273 3.0 10.0 0.00 0.02 0.02 58 1019.7
20260901153505 71 275 4.0 10.0 0.00 0.02 0.02 56 1019.7
20260901152505 71 271 5.0 10.0 0.00 0.02 0.02 57 1019.7
20260901152006 72 264 4.0 10.0 0.00 0.02 0.02 53 1019.7
20260901151505 72 264 3.0 14.0 0.00 0.02 0.02 53 1019.6
20260901151006 72 272 4.0 14.0 0.00 0.02 0.02 52 1019.7
20260901145505 72 267 6.0 12.0 0.00 0.02 0.02 53 1019.6
20260901145005 73 267 6.0 12.0 0.00 0.02 0.02 51 1019.7
20260901144006 73 275 5.0 11.0 0.00 0.02 0.02 53 1019.6
20260901143505 73 276 5.0 13.0 0.00 0.02 0.02 53 1019.6
20260901143006 74 278 5.0 13.0 0.00 0.02 0.02 55 1019.6
20260901142506 74 272 5.0 11.0 0.00 0.02 0.02 54 1019.7
20260901142007 74 269 5.0 12.0 0.00 0.02 0.02 53 1019.7
20260901141506 74 278 4.0 14.0 0.00 0.02 0.02 56 1019.7
20260901141006 75 282 5.0 14.0 0.00 0.02 0.02 55 1019.7
20260901140505 74 280 5.0 13.0 0.00 0.02 0.02 55 1019.7
20260901135505 74 265 5.0 12.0 0.00 0.02 0.02 55 1019.8
20260901134505 75 281 6.0 14.0 0.00 0.02 0.02 54 1019.8
20260901134006 75 293 4.0 13.0 0.00 0.02 0.02 56 1019.7
20260901133505 74 290 5.0 13.0 0.00 0.02 0.02 59 1019.7
20260901133006 75 282 5.0 12.0 0.00 0.02 0.02 56 1019.7
20260901132506 76 278 4.0 10.0 0.00 0.02 0.02 54 1019.7
20260901132006 75 288 4.0 13.0 0.00 0.02 0.02 54 1019.7
20260901131505 75 287 5.0 13.0 0.00 0.02 0.02 59 1019.8
20260901131006 75 277 5.0 13.0 0.00 0.02 0.02 56 1019.7
20260901130506 76 276 4.0 10.0 0.00 0.02 0.02 56 1019.8
20260901130005 75 281 5.0 12.0 0.00 0.02 0.02 53 1019.7
20260901125506 74 280 6.0 12.0 0.00 0.02 0.02 55 1019.7
20260901125006 74 280 5.0 12.0 0.00 0.02 0.02 55 1019.7
20260901124506 74 275 5.0 13.0 0.00 0.02 0.02 59 1019.7
20260901123506 74 270 7.0 15.0 0.00 0.02 0.02 51 1019.7
20260901123006 74 269 7.0 15.0 0.00 0.02 0.02 51 1019.7
20260901122505 74 275 7.0 13.0 0.00 0.02 0.02 54 1019.8
20260901121506 72 282 6.0 14.0 0.00 0.02 0.02 59 1019.9
20260901121005 71 277 7.0 15.0 0.00 0.02 0.02 59 1019.9
20260901120505 72 274 8.0 15.0 0.00 0.02 0.02 58 1019.9
20260901115505 72 264 6.0 13.0 0.00 0.02 0.02 59 1019.9
20260901115005 70 271 6.0 12.0 0.00 0.02 0.02 58 1019.8
20260901113506 72 275 6.0 14.0 0.00 0.02 0.02 61 1019.8
20260901113005 71 273 7.0 14.0 0.00 0.02 0.02 63 1019.8
20260901112505 70 275 7.0 12.0 0.00 0.02 0.02 61 1019.7
20260901112007 71 279 6.0 12.0 0.00 0.02 0.02 63 1019.7
20260901111506 69 278 5.0 12.0 0.00 0.02 0.02 64 1019.8
20260901110506 71 275 5.0 15.0 0.00 0.02 0.02 64 1019.7
20260901110006 70 275 5.0 11.0 0.00 0.02 0.02 64 1019.7
20260901105506 71 277 6.0 13.0 0.00 0.02 0.02 62 1019.7
20260901105006 70 274 6.0 13.0 0.00 0.02 0.02 64 1019.6
20260901104505 70 267 6.0 13.0 0.00 0.02 0.02 64 1019.6
20260901104006 70 266 7.0 13.0 0.00 0.02 0.02 60 1019.5
20260901103506 72 266 6.0 13.0 0.00 0.02 0.02 58 1019.5
20260901103005 70 269 6.0 11.0 0.00 0.02 0.02 62 1019.6
20260901102506 68 271 5.0 10.0 0.00 0.02 0.02 66 1019.6
20260901102006 69 276 5.0 15.0 0.00 0.02 0.02 65 1019.6
20260901101506 70 273 6.0 15.0 0.00 0.02 0.02 62 1019.6
20260901101005 70 269 5.0 11.0 0.00 0.02 0.02 65 1019.6
20260901100506 69 273 5.0 11.0 0.00 0.07 0.02 66 1019.6
20260901100006 69 277 5.0 10.0 0.00 0.09 0.02 66 1019.6
20260901095506 70 279 5.0 13.0 0.00 0.09 0.02 70 1019.6
20260901095006 70 277 5.0 13.0 0.00 0.09 0.02 65 1019.6
20260901094506 72 272 5.0 11.0 0.00 0.09 0.02 63 1019.5
20260901093007 68 270 6.0 12.0 0.00 0.09 0.02 70 1019.5
20260901092506 68 269 6.0 12.0 0.00 0.09 0.02 68 1019.5
20260901091506 70 270 5.0 11.0 0.00 0.09 0.02 67 1019.3
20260901091006 69 276 5.0 11.0 0.00 0.09 0.02 70 1019.3
20260901090006 69 275 5.0 10.0 0.00 0.09 0.02 71 1019.3
20260901085506 69 281 4.0 10.0 0.00 0.09 0.02 74 1019.3
20260901085006 68 274 5.0 10.0 0.00 0.09 0.02 74 1019.3
20260901084505 66 272 5.0 12.0 0.00 0.09 0.02 76 1019.3
20260901084006 66 276 4.0 12.0 0.00 0.09 0.02 76 1019.2
20260901083505 66 270 4.0 10.0 0.00 0.09 0.02 75 1019.1
20260901083006 66 272 4.0 10.0 0.00 0.09 0.02 75 1019.1
20260901082505 67 272 4.0 12.0 0.00 0.09 0.02 77 1019.0
20260901081506 66 271 5.0 12.0 0.00 0.09 0.02 75 1018.9
20260901081005 67 276 4.0 12.0 0.00 0.09 0.02 75 1018.8
20260901080508 68 274 4.0 10.0 0.00 0.09 0.02 76 1018.8
20260901080006 67 271 3.0 9.0 0.00 0.09 0.02 77 1018.7
20260901075506 66 277 2.0 9.0 0.00 0.09 0.02 80 1018.7
20260901074007 65 268 3.0 9.0 0.00 0.09 0.02 83 1018.5
20260901072506 65 271 3.0 10.0 0.00 0.09 0.02 83 1018.4
20260901072006 65 262 3.0 10.0 0.00 0.09 0.02 86 1018.4
20260901071506 64 268 2.0 8.0 0.00 0.11 0.02 88 1018.3
20260901070506 64 257 1.0 7.0 0.00 0.13 0.02 92 1018.2
20260901070005 64 248 2.0 7.0 0.00 0.13 0.02 92 1018.2
20260901065506 64 235 2.0 7.0 0.00 0.13 0.02 93 1018.1
20260901065006 63 239 1.0 6.0 0.00 0.13 0.02 94 1018.1
20260901064506 63 243 0.0 3.0 0.00 0.13 0.02 94 1018.0
20260901064006 62 231 0.0 4.0 0.00 0.13 0.02 94 1018.0
20260901063506 62 236 0.0 4.0 0.00 0.13 0.02 94 1018.0
20260901063005 62 250 0.0 6.0 0.00 0.13 0.02 94 1018.0
20260901062506 62 242 0.0 6.0 0.00 0.13 0.02 94 1017.9
20260901061506 62 275 0.0 2.0 0.00 0.14 0.02 94 1017.8
20260901061006 62 0 0.0 0.0 0.00 0.14 0.02 94 1017.9
20260901060505 62 0 0.0 0.0 0.00 0.14 0.02 95 1017.8
20260901060006 62 231 0.0 3.0 0.00 0.14 0.02 95 1017.8
20260901055006 62 205 0.0 3.0 0.00 0.16 0.02 95 1017.6
20260901054506 62 228 0.0 2.0 0.00 0.17 0.02 95 1017.6
20260901054006 62 225 0.0 1.0 0.00 0.17 0.02 95 1017.6
20260901053005 62 198 0.0 2.0 0.00 0.17 0.02 95 1017.5
20260901052506 62 198 0.0 2.0 0.00 0.17 0.02 95 1017.5
20260901052005 62 0 0.0 0.0 0.00 0.17 0.02 95 1017.4
20260901051506 62 206 0.0 3.0 0.00 0.17 0.02 95 1017.4
20260901051006 62 212 0.0 3.0 0.00 0.17 0.02 95 1017.3
20260901050505 62 213 0.0 3.0 0.00 0.17 0.02 95 1017.3
20260901050006 62 0 0.0 0.0 0.00 0.17 0.02 95 1017.3
20260901045006 62 223 1.0 4.0 0.00 0.17 0.02 95 1017.3
20260901044507 62 215 0.0 4.0 0.00 0.17 0.02 95 1017.3
20260901043506 62 206 1.0 4.0 0.00 0.17 0.02 95 1017.1
20260901043006 62 202 0.0 4.0 0.00 0.17 0.02 95 1017.1
20260901042506 62 206 0.0 4.0 0.00 0.17 0.02 95 1017.0
20260901042006 62 206 0.0 4.0 0.00 0.17 0.02 95 1017.0
20260901041006 62 209 0.0 3.0 0.00 0.17 0.02 95 1016.8
20260901040507 62 208 0.0 3.0 0.00 0.17 0.02 95 1016.9
20260901040006 62 200 0.0 3.0 0.00 0.17 0.02 95 1016.9
20260901035506 62 205 0.0 3.0 0.00 0.17 0.02 95 1016.9
20260901035006 62 209 0.0 3.0 0.00 0.17 0.02 95 1016.9
20260901034506 62 210 0.0 3.0 0.00 0.17 0.02 95 1016.9
20260901034006 62 0 0.0 0.0 0.00 0.17 0.02 95 1016.9
20260901033506 62 0 0.0 0.0 0.00 0.17 0.02 95 1016.8
20260901033005 62 218 0.0 3.0 0.00 0.17 0.02 95 1016.9
20260901032505 62 223 0.0 3.0 0.00 0.17 0.02 95 1016.9
20260901032006 62 222 0.0 4.0 0.00 0.17 0.02 95 1016.9
20260901031506 62 218 0.0 4.0 0.00 0.17 0.02 95 1016.9
20260901030506 62 221 0.0 4.0 0.00 0.17 0.02 95 1016.7
20260901025506 62 194 0.0 2.0 0.00 0.17 0.02 95 1016.7
20260901025006 62 195 0.0 3.0 0.00 0.17 0.02 95 1016.6
20260901023506 62 224 0.0 3.0 0.00 0.17 0.02 95 1016.5
20260901023006 62 0 0.0 0.0 0.00 0.17 0.02 95 1016.5
20260901022507 62 0 0.0 0.0 0.00 0.17 0.02 95 1016.5
20260901022006 61 0 0.0 0.0 0.00 0.17 0.02 95 1016.5
20260901021506 61 0 0.0 0.0 0.00 0.17 0.02 95 1016.6
20260901021006 61 0 0.0 0.0 0.00 0.17 0.02 95 1016.6
20260901020506 61 0 0.0 0.0 0.00 0.17 0.02 94 1016.6
20260901020006 61 0 0.0 0.0 0.00 0.17 0.02 94 1016.5
20260901015506 61 0 0.0 0.0 0.00 0.17 0.02 94 1016.5
20260901015006 61 0 0.0 0.0 0.00 0.17 0.02 95 1016.5
20260901014506 61 0 0.0 0.0 0.00 0.17 0.02 94 1016.5
20260901014006 61 0 0.0 0.0 0.00 0.17 0.02 95 1016.5
20260901013506 61 0 0.0 0.0 0.00 0.17 0.02 95 1016.5
20260901013006 61 0 0.0 0.0 0.00 0.17 0.02 95 1016.4
20260901012507 60 181 0.0 2.0 0.00 0.17 0.02 95 1016.4
20260901012006 60 181 0.0 2.0 0.00 0.17 0.02 94 1016.3
20260901010506 60 0 0.0 0.0 0.00 0.17 0.02 94 1016.4
20260901010006 60 0 0.0 0.0 0.00 0.17 0.02 94 1016.4
20260901005506 60 0 0.0 0.0 0.00 0.17 0.02 94 1016.5
20260901005005 60 0 0.0 0.0 0.00 0.17 0.02 94 1016.4
20260901004506 60 0 0.0 0.0 0.00 0.17 0.02 94 1016.4
20260901004006 60 0 0.0 0.0 0.00 0.17 0.02 94 1016.4
20260901003505 60 0 0.0 0.0 0.00 0.17 0.02 94 1016.3
20260901002506 60 0 0.0 0.0 0.00 0.17 0.02 93 1016.3
20260901002006 60 0 0.0 0.0 0.00 0.17 0.02 93 1016.3
20260901001506 60 0 0.0 0.0 0.00 0.17 0.02 93 1016.3
20260901001006 60 0 0.0 0.0 0.00 0.17 0.02 93 1016.3
20260901000506 60 205 0.0 4.0 0.00 0.17 0.02 93 1016.3
20260901000006 60 215 1.0 4.0 0.00 0.17 0.02 92 1016.2
20260831235505 60 216 1.0 4.0 0.00 0.17 0.02 92 1016.2
20260831235005 60 215 1.0 4.0 0.00 0.17 0.02 92 1016.2
20260831234006 60 0 0.0 0.0 0.00 0.17 0.02 92 1016.2
20260831233506 60 0 0.0 0.0 0.00 0.17 0.02 91 1016.2
20260831232506 60 208 0.0 6.0 0.02 0.17 0.02 91 1016.0
20260831232005 61 211 2.0 7.0 0.02 0.17 0.02 91 1016.0
20260831231506 61 216 2.0 7.0 0.02 0.17 0.02 91 1016.0
20260831231006 62 214 3.0 7.0 0.02 0.17 0.02 92 1016.0
20260831230506 63 209 2.0 7.0 0.02 0.17 0.02 92 1016.0
20260831230005 63 207 1.0 4.0 0.02 0.17 0.02 92 1015.9
20260831225506 63 0 0.0 0.0 0.02 0.17 0.02 92 1015.8
20260831225006 63 0 0.0 0.0 0.02 0.17 0.02 92 1015.9
20260831224505 64 0 0.0 0.0 0.02 0.17 0.02 91 1015.8
20260831224006 64 0 0.0 0.0 0.02 0.17 0.02 91 1015.7
20260831223505 64 237 0.0 1.0 0.01 0.17 0.01 90 1015.7
20260831222006 64 257 2.0 6.0 0.00 0.16 0.00 89 1015.8
20260831221506 64 261 3.0 7.0 0.00 0.16 0.00 90 1015.8
20260831221005 65 270 3.0 10.0 0.00 0.16 0.00 92 1015.7
20260831220505 65 268 3.0 10.0 0.00 0.16 0.00 92 1015.8
20260831220006 65 241 1.0 4.0 0.00 0.16 0.00 92 1015.6
20260831215507 65 231 2.0 7.0 0.00 0.16 0.16 91 1015.6
20260831215006 65 237 2.0 8.0 0.00 0.16 0.16 92 1015.4
20260831214506 65 237 2.0 8.0 0.00 0.16 0.16 91 1015.5
20260831214006 65 235 2.0 8.0 0.00 0.16 0.16 91 1015.5
20260831213506 65 239 2.0 8.0 0.00 0.16 0.16 91 1015.4
20260831213006 65 237 2.0 8.0 0.00 0.16 0.16 91 1015.4